Change the Weather History Date:

Thursday, January 31, 2013

  Actual Average Record
Temperature  
Mean Temperature 44 °F -  
Max Temperature 61 °F 48 °F 68 °F (2006)
Min Temperature 24 °F 28 °F 17 °F (2008)
Degree Days  
Heating Degree Days 22    
Moisture  
Dew Point 21 °F    
Average Humidity 53    
Maximum Humidity 70    
Minimum Humidity 21    
Precipitation  
Precipitation 0.00 in - - ()
Sea Level Pressure  
Sea Level Pressure 30.17 in    
Wind  
Wind Speed 12 mph (North)    
Max Wind Speed 23 mph    
Max Gust Speed 29 mph    
Visibility 10 miles    
Events      
Averages and records for this station are not official NWS values.
T = Trace of Precipitation, MM = Missing Value Source: NWS Daily Summary

Daily Weather History Graph

Daily Weather History Graph

Search for Another Location

Airport or City:

Trip Planner

Search our weather history database for the weather conditions in past years. The results will help you decide how hot, cold, wet, or windy it might be!

Date:

Astronomy

Jan. 31, 2013 Rise Set
Actual Time 7:36 AM CST 6:04 PM CST
Civil Twilight 7:09 AM CST 6:31 PM CST
Nautical Twilight 6:39 AM CST 7:01 PM CST
Astronomical Twilight 6:09 AM CST 7:31 PM CST
Moon 10:54 PM CST (1/31) 9:49 AM CST (1/31)
Length of Visible Light 11h 21m
Length of Day
10h 27m
Waning Gibbous, 79% of the Moon is Illuminated
Jan 31
Waning Gibbous
Feb 3
Last Quarter
Feb 10
New
Feb 17
First Quarter
Feb 25
Full

Hourly Weather History & Observations

Time (CST) Temp. Windchill Dew Point Humidity Pressure Visibility Wind Dir Wind Speed Gust Speed Precip Events Conditions
12:53 AM 33.1 °F 24.9 °F 19.0 °F 56% 30.07 in 10.0 mi SW 10.4 mph - N/A   Clear
1:53 AM 30.9 °F 22.8 °F 19.9 °F 64% 30.06 in 10.0 mi SW 9.2 mph - N/A   Clear
2:53 AM 33.1 °F 26.1 °F 18.0 °F 54% 30.05 in 10.0 mi SW 8.1 mph - N/A   Clear
3:53 AM 32.0 °F 23.6 °F 18.0 °F 56% 30.04 in 10.0 mi SW 10.4 mph - N/A   Clear
4:53 AM 30.9 °F 24.3 °F 17.1 °F 57% 30.05 in 10.0 mi WSW 6.9 mph - N/A   Clear
5:53 AM 27.0 °F 18.0 °F 18.0 °F 69% 30.06 in 10.0 mi SSW 9.2 mph - N/A   Clear
6:53 AM 28.0 °F 19.3 °F 18.0 °F 66% 30.06 in 10.0 mi South 9.2 mph - N/A   Clear
7:53 AM 30.0 °F 19.1 °F 18.0 °F 61% 30.09 in 10.0 mi North 15.0 mph - N/A   Clear
8:53 AM 36.0 °F 33.3 °F 19.0 °F 50% 30.12 in 10.0 mi West 3.5 mph - N/A   Clear
9:53 AM 39.9 °F 35.8 °F 23.0 °F 51% 30.12 in 10.0 mi West 5.8 mph - N/A   Clear
10:53 AM 48.0 °F - 27.0 °F 44% 30.10 in 10.0 mi SW 6.9 mph - N/A   Clear
11:53 AM 57.0 °F - 24.1 °F 28% 30.10 in 10.0 mi NW 11.5 mph - N/A   Clear
12:53 PM 61.0 °F - 21.0 °F 21% 30.07 in 10.0 mi North 8.1 mph - N/A   Clear
1:53 PM 61.0 °F - 24.1 °F 24% 30.08 in 10.0 mi North 12.7 mph - N/A   Clear
2:53 PM 57.9 °F - 25.0 °F 28% 30.10 in 10.0 mi NNE 23.0 mph - N/A   Clear
3:53 PM 53.1 °F - 26.1 °F 35% 30.17 in 10.0 mi NE 21.9 mph 28.8 mph N/A   Clear
4:53 PM 48.9 °F - 26.1 °F 41% 30.23 in 10.0 mi NE 23.0 mph - N/A   Clear
5:53 PM 41.0 °F 32.8 °F 25.0 °F 53% 30.31 in 10.0 mi ENE 16.1 mph - N/A   Clear
6:53 PM 37.9 °F 28.2 °F 27.0 °F 65% 30.34 in 10.0 mi NE 18.4 mph - N/A   Clear
7:53 PM 33.1 °F 20.6 °F 24.1 °F 70% 30.37 in 10.0 mi NE 23.0 mph - N/A   Clear
8:53 PM 30.0 °F 17.5 °F 21.0 °F 69% 30.38 in 10.0 mi NE 19.6 mph - N/A   Clear
9:53 PM 27.0 °F 13.5 °F 18.0 °F 69% 30.38 in 10.0 mi NE 19.6 mph - N/A   Clear
10:53 PM 26.1 °F 13.6 °F 17.1 °F 69% 30.37 in 10.0 mi ENE 16.1 mph - N/A   Clear
11:53 PM 24.1 °F 12.5 °F 15.1 °F 69% 30.37 in 10.0 mi ENE 12.7 mph - N/A   Clear